| time (UTC) | temp C | wind direction | speed KPH | gust KPH | rain 1hr cm | rain 24hr cm | rain mn cm | humidity % | barometer mb |
| 20260510102650 | 13 | 350 | 6.4 | 14.5 | 0.00 | 0.00 | 0.00 | 82 | 1014.8 |
| 20260510102151 | 13 | 303 | 8.0 | 16.1 | 0.00 | 0.00 | 0.00 | 82 | 1014.9 |
| 20260510101650 | 13 | 324 | 4.8 | 16.1 | 0.00 | 0.00 | 0.00 | 81 | 1014.9 |
| 20260510101155 | 13 | 11 | 6.4 | 16.1 | 0.00 | 0.00 | 0.00 | 82 | 1014.8 |
| 20260510100651 | 13 | 322 | 4.8 | 14.5 | 0.00 | 0.00 | 0.00 | 82 | 1014.3 |
| 20260510100151 | 13 | 327 | 9.7 | 14.5 | 0.00 | 0.00 | 0.00 | 82 | 1014.3 |
| 20260510095151 | 13 | 312 | 6.4 | 12.9 | 0.00 | 0.00 | 0.00 | 81 | 1014.7 |
| 20260510094651 | 13 | 331 | 4.8 | 16.1 | 0.00 | 0.00 | 0.00 | 81 | 1014.6 |
| 20260510094153 | 13 | 4 | 6.4 | 16.1 | 0.00 | 0.00 | 0.00 | 81 | 1014.5 |
| 20260510093651 | 13 | 319 | 6.4 | 16.1 | 0.00 | 0.00 | 0.00 | 81 | 1014.4 |
| 20260510092652 | 13 | 315 | 8.0 | 16.1 | 0.00 | 0.00 | 0.00 | 81 | 1014.4 |
| 20260510092150 | 13 | 333 | 4.8 | 16.1 | 0.00 | 0.00 | 0.00 | 81 | 1014.4 |
| 20260510091153 | 13 | 333 | 6.4 | 22.5 | 0.00 | 0.00 | 0.00 | 81 | 1014.6 |
| 20260510090651 | 13 | 329 | 9.7 | 22.5 | 0.00 | 0.00 | 0.00 | 81 | 1014.6 |
| 20260510090151 | 13 | 320 | 6.4 | 22.5 | 0.00 | 0.00 | 0.00 | 81 | 1014.6 |
| 20260510085652 | 13 | 320 | 14.5 | 19.3 | 0.00 | 0.00 | 0.00 | 81 | 1014.5 |
| 20260510085152 | 13 | 8 | 4.8 | 9.7 | 0.00 | 0.00 | 0.00 | 81 | 1014.3 |
| 20260510084651 | 13 | 16 | 3.2 | 9.7 | 0.00 | 0.00 | 0.00 | 81 | 1014.3 |
| 20260510084153 | 13 | 316 | 1.6 | 17.7 | 0.00 | 0.00 | 0.00 | 81 | 1014.2 |
| 20260510083651 | 13 | 326 | 0.0 | 17.7 | 0.00 | 0.00 | 0.00 | 81 | 1014.2 |
| 20260510083151 | 13 | 337 | 8.0 | 17.7 | 0.00 | 0.00 | 0.00 | 81 | 1014.4 |
| 20260510082652 | 13 | 315 | 8.0 | 25.7 | 0.00 | 0.00 | 0.00 | 81 | 1014.5 |
| 20260510082151 | 13 | 347 | 9.7 | 25.7 | 0.00 | 0.00 | 0.00 | 81 | 1014.6 |
| 20260510081651 | 13 | 341 | 12.9 | 25.7 | 0.00 | 0.00 | 0.00 | 81 | 1014.6 |
| 20260510081153 | 13 | 344 | 16.1 | 16.1 | 0.00 | 0.00 | 0.00 | 81 | 1014.6 |
| 20260510080651 | 13 | 320 | 3.2 | 11.3 | 0.00 | 0.00 | 0.00 | 81 | 1014.5 |
| 20260510080151 | 13 | 323 | 1.6 | 19.3 | 0.00 | 0.00 | 0.00 | 81 | 1014.5 |
| 20260510075652 | 13 | 324 | 6.4 | 19.3 | 0.00 | 0.00 | 0.00 | 81 | 1014.5 |
| 20260510075151 | 13 | 330 | 6.4 | 19.3 | 0.00 | 0.00 | 0.00 | 81 | 1014.5 |
| 20260510074651 | 13 | 320 | 11.3 | 20.9 | 0.00 | 0.00 | 0.00 | 81 | 1014.3 |
| 20260510074153 | 13 | 323 | 9.7 | 20.9 | 0.00 | 0.00 | 0.00 | 81 | 1014.3 |
| 20260510073652 | 13 | 278 | 11.3 | 20.9 | 0.00 | 0.00 | 0.00 | 81 | 1014.2 |
| 20260510072652 | 13 | 336 | 11.3 | 17.7 | 0.00 | 0.00 | 0.00 | 81 | 1014.1 |
| 20260510072151 | 13 | 334 | 11.3 | 16.1 | 0.00 | 0.00 | 0.00 | 81 | 1014.1 |
| 20260510071651 | 13 | 351 | 11.3 | 16.1 | 0.00 | 0.00 | 0.00 | 81 | 1014.1 |
| 20260510071153 | 13 | 316 | 4.8 | 16.1 | 0.00 | 0.00 | 0.00 | 81 | 1014.2 |
| 20260510070650 | 13 | 327 | 3.2 | 14.5 | 0.00 | 0.00 | 0.00 | 81 | 1014.2 |
| 20260510070151 | 13 | 310 | 9.7 | 25.7 | 0.00 | 0.00 | 0.00 | 81 | 1014.1 |
| 20260510065652 | 13 | 340 | 12.9 | 25.7 | 0.00 | 0.00 | 0.00 | 81 | 1014.1 |
| 20260510064651 | 13 | 355 | 14.5 | 19.3 | 0.00 | 0.00 | 0.00 | 81 | 1014.1 |
| 20260510063651 | 13 | 323 | 9.7 | 19.3 | 0.00 | 0.00 | 0.00 | 81 | 1014.1 |
| 20260510063151 | 13 | 316 | 11.3 | 19.3 | 0.00 | 0.00 | 0.00 | 81 | 1014.1 |
| 20260510062652 | 13 | 337 | 12.9 | 19.3 | 0.00 | 0.00 | 0.00 | 81 | 1014.1 |
| 20260510062151 | 13 | 322 | 9.7 | 17.7 | 0.00 | 0.00 | 0.00 | 81 | 1014.1 |
| 20260510061651 | 13 | 316 | 12.9 | 17.7 | 0.00 | 0.00 | 0.00 | 81 | 1014.0 |
| 20260510061153 | 13 | 316 | 6.4 | 17.7 | 0.00 | 0.00 | 0.00 | 81 | 1014.1 |
| 20260510060651 | 13 | 323 | 9.7 | 14.5 | 0.00 | 0.00 | 0.00 | 81 | 1014.1 |
| 20260510060151 | 13 | 352 | 6.4 | 14.5 | 0.00 | 0.00 | 0.00 | 81 | 1014.1 |
| 20260510055650 | 13 | 320 | 6.4 | 12.9 | 0.00 | 0.00 | 0.00 | 81 | 1014.1 |
| 20260510055151 | 13 | 306 | 8.0 | 24.1 | 0.00 | 0.00 | 0.00 | 81 | 1014.2 |
| 20260510054651 | 13 | 324 | 8.0 | 24.1 | 0.00 | 0.00 | 0.00 | 81 | 1014.3 |
| 20260510054153 | 13 | 340 | 6.4 | 24.1 | 0.00 | 0.00 | 0.00 | 81 | 1014.2 |
| 20260510053650 | 13 | 326 | 14.5 | 27.4 | 0.00 | 0.00 | 0.00 | 81 | 1014.2 |
| 20260510053151 | 13 | 309 | 12.9 | 27.4 | 0.00 | 0.00 | 0.00 | 81 | 1014.3 |
| 20260510052652 | 14 | 315 | 12.9 | 27.4 | 0.00 | 0.00 | 0.00 | 81 | 1014.2 |
| 20260510052151 | 13 | 308 | 14.5 | 25.7 | 0.00 | 0.00 | 0.00 | 81 | 1014.2 |
| 20260510051651 | 13 | 337 | 14.5 | 25.7 | 0.00 | 0.00 | 0.00 | 81 | 1014.2 |
| 20260510051153 | 14 | 313 | 11.3 | 24.1 | 0.00 | 0.00 | 0.00 | 81 | 1014.2 |
| 20260510050651 | 14 | 351 | 12.9 | 22.5 | 0.00 | 0.00 | 0.00 | 81 | 1014.1 |
| 20260510050153 | 14 | 299 | 9.7 | 22.5 | 0.00 | 0.00 | 0.00 | 81 | 1014.2 |
| 20260510045151 | 14 | 334 | 16.1 | 17.7 | 0.00 | 0.00 | 0.00 | 81 | 1014.0 |
| 20260510044650 | 14 | 336 | 12.9 | 19.3 | 0.00 | 0.00 | 0.00 | 81 | 1013.9 |
| 20260510044151 | 14 | 322 | 14.5 | 19.3 | 0.00 | 0.00 | 0.00 | 81 | 1013.9 |
| 20260510043651 | 14 | 327 | 9.7 | 19.3 | 0.00 | 0.00 | 0.00 | 81 | 1013.8 |
| 20260510043151 | 14 | 313 | 12.9 | 22.5 | 0.00 | 0.00 | 0.00 | 81 | 1013.7 |
| 20260510042650 | 14 | 327 | 11.3 | 22.5 | 0.00 | 0.00 | 0.00 | 81 | 1013.7 |
| 20260510042151 | 14 | 303 | 14.5 | 22.5 | 0.00 | 0.00 | 0.00 | 81 | 1013.7 |
| 20260510041743 | 14 | 317 | 14.5 | 22.5 | 0.00 | 0.00 | 0.00 | 81 | 1013.7 |
| 20260510041651 | 14 | 317 | 14.5 | 22.5 | 0.00 | 0.00 | 0.00 | 81 | 1013.7 |
| 20260510041153 | 14 | 316 | 9.7 | 22.5 | 0.00 | 0.00 | 0.00 | 81 | 1013.5 |
| 20260510040651 | 14 | 319 | 11.3 | 22.5 | 0.00 | 0.00 | 0.00 | 81 | 1013.5 |
| 20260510040150 | 14 | 327 | 9.7 | 24.1 | 0.00 | 0.00 | 0.00 | 81 | 1013.4 |
| 20260510035151 | 14 | 324 | 14.5 | 24.1 | 0.00 | 0.00 | 0.00 | 81 | 1013.3 |
| 20260510034650 | 14 | 347 | 16.1 | 25.7 | 0.00 | 0.00 | 0.00 | 81 | 1013.2 |
| 20260510034153 | 14 | 309 | 12.9 | 25.7 | 0.00 | 0.00 | 0.00 | 81 | 1013.1 |
| 20260510033650 | 14 | 322 | 14.5 | 25.7 | 0.00 | 0.00 | 0.00 | 80 | 1013.0 |
| 20260510033151 | 14 | 330 | 12.9 | 24.1 | 0.00 | 0.00 | 0.00 | 80 | 1013.0 |
| 20260510032650 | 14 | 347 | 12.9 | 24.1 | 0.00 | 0.00 | 0.00 | 80 | 1012.9 |
| 20260510032151 | 14 | 323 | 14.5 | 24.1 | 0.00 | 0.00 | 0.00 | 80 | 1012.8 |
| 20260510031650 | 14 | 298 | 14.5 | 29.0 | 0.00 | 0.00 | 0.00 | 80 | 1012.8 |
| 20260510031153 | 14 | 320 | 16.1 | 29.0 | 0.00 | 0.00 | 0.00 | 79 | 1012.7 |
| 20260510030650 | 14 | 330 | 12.9 | 29.0 | 0.00 | 0.00 | 0.00 | 79 | 1012.7 |
| 20260510030151 | 14 | 320 | 14.5 | 24.1 | 0.00 | 0.00 | 0.00 | 79 | 1012.6 |
| 20260510025652 | 15 | 315 | 14.5 | 24.1 | 0.00 | 0.00 | 0.00 | 79 | 1012.6 |
| 20260510025151 | 15 | 330 | 12.9 | 20.9 | 0.00 | 0.00 | 0.00 | 79 | 1012.5 |
| 20260510024650 | 15 | 326 | 12.9 | 30.6 | 0.00 | 0.00 | 0.00 | 79 | 1012.4 |
| 20260510024151 | 15 | 308 | 12.9 | 30.6 | 0.00 | 0.00 | 0.00 | 79 | 1012.4 |
| 20260510023650 | 15 | 320 | 16.1 | 30.6 | 0.00 | 0.00 | 0.00 | 79 | 1012.4 |
| 20260510023151 | 15 | 337 | 17.7 | 29.0 | 0.00 | 0.00 | 0.00 | 78 | 1012.5 |
| 20260510022845 | 15 | 338 | 17.7 | 32.2 | 0.00 | 0.00 | 0.00 | 77 | 1012.7 |
| 20260510022151 | 15 | 316 | 20.9 | 30.6 | 0.00 | 0.00 | 0.00 | 78 | 1012.6 |
| 20260510021650 | 15 | 324 | 17.7 | 30.6 | 0.00 | 0.00 | 0.00 | 77 | 1012.6 |
| 20260510021153 | 15 | 350 | 20.9 | 32.2 | 0.00 | 0.00 | 0.00 | 77 | 1012.7 |
| 20260510020650 | 15 | 338 | 17.7 | 32.2 | 0.00 | 0.00 | 0.00 | 77 | 1012.7 |
| 20260510020151 | 16 | 316 | 20.9 | 32.2 | 0.00 | 0.00 | 0.00 | 76 | 1012.7 |
| 20260510015151 | 16 | 326 | 20.9 | 30.6 | 0.00 | 0.00 | 0.00 | 76 | 1012.5 |
| 20260510014650 | 16 | 333 | 16.1 | 30.6 | 0.00 | 0.00 | 0.00 | 75 | 1012.7 |
| 20260510014151 | 16 | 322 | 16.1 | 30.6 | 0.00 | 0.00 | 0.00 | 75 | 1012.6 |
| 20260510013650 | 16 | 316 | 19.3 | 30.6 | 0.00 | 0.00 | 0.00 | 74 | 1012.7 |
| 20260510013150 | 16 | 344 | 19.3 | 30.6 | 0.00 | 0.00 | 0.00 | 74 | 1012.6 |
| 20260510012650 | 16 | 320 | 14.5 | 30.6 | 0.00 | 0.00 | 0.00 | 74 | 1012.6 |
| 20260510012151 | 16 | 285 | 16.1 | 30.6 | 0.00 | 0.00 | 0.00 | 74 | 1012.6 |
| 20260510011650 | 16 | 331 | 19.3 | 32.2 | 0.00 | 0.00 | 0.00 | 73 | 1012.6 |
| 20260510011151 | 17 | 324 | 16.1 | 32.2 | 0.00 | 0.00 | 0.00 | 73 | 1012.7 |
| 20260510010650 | 17 | 341 | 16.1 | 32.2 | 0.00 | 0.00 | 0.00 | 72 | 1012.7 |
| 20260510010150 | 17 | 312 | 16.1 | 24.1 | 0.00 | 0.00 | 0.00 | 72 | 1012.7 |
| 20260510005650 | 17 | 310 | 12.9 | 22.5 | 0.00 | 0.00 | 0.00 | 72 | 1012.7 |
| 20260510005150 | 17 | 331 | 16.1 | 30.6 | 0.00 | 0.00 | 0.00 | 72 | 1012.7 |
| 20260510004650 | 17 | 336 | 16.1 | 30.6 | 0.00 | 0.00 | 0.00 | 72 | 1012.6 |
| 20260510004151 | 17 | 324 | 17.7 | 30.6 | 0.00 | 0.00 | 0.00 | 71 | 1012.6 |
| 20260510003650 | 17 | 313 | 16.1 | 32.2 | 0.00 | 0.00 | 0.00 | 70 | 1012.7 |
| 20260510003151 | 17 | 319 | 16.1 | 32.2 | 0.00 | 0.00 | 0.00 | 70 | 1012.7 |
| 20260510002650 | 17 | 330 | 20.9 | 32.2 | 0.00 | 0.00 | 0.00 | 69 | 1012.7 |
| 20260510002150 | 17 | 319 | 19.3 | 32.2 | 0.00 | 0.00 | 0.00 | 68 | 1012.7 |
| 20260510001650 | 18 | 329 | 19.3 | 32.2 | 0.00 | 0.00 | 0.00 | 67 | 1012.7 |
| 20260510001201 | 18 | 310 | 19.3 | 33.8 | 0.00 | 0.00 | 0.00 | 67 | 1012.6 |
| 20260510001151 | 18 | 310 | 19.3 | 33.8 | 0.00 | 0.00 | 0.00 | 67 | 1012.6 |
| 20260510000651 | 18 | 324 | 17.7 | 33.8 | 0.00 | 0.00 | 0.00 | 67 | 1012.7 |
| 20260510000150 | 18 | 315 | 19.3 | 33.8 | 0.00 | 0.00 | 0.00 | 67 | 1012.5 |
| 20260509235650 | 18 | 319 | 19.3 | 30.6 | 0.00 | 0.00 | 0.00 | 68 | 1012.6 |
| 20260509235151 | 18 | 316 | 17.7 | 30.6 | 0.00 | 0.00 | 0.00 | 68 | 1012.6 |
| 20260509234650 | 17 | 326 | 16.1 | 30.6 | 0.00 | 0.00 | 0.00 | 69 | 1012.6 |
| 20260509234151 | 17 | 345 | 22.5 | 35.4 | 0.00 | 0.00 | 0.00 | 69 | 1012.6 |
| 20260509233650 | 17 | 323 | 20.9 | 35.4 | 0.00 | 0.00 | 0.00 | 70 | 1012.6 |
| 20260509233152 | 17 | 305 | 19.3 | 35.4 | 0.00 | 0.00 | 0.00 | 71 | 1012.6 |
| 20260509232150 | 17 | 331 | 17.7 | 37.0 | 0.00 | 0.00 | 0.00 | 72 | 1012.7 |
| 20260509231650 | 17 | 326 | 19.3 | 37.0 | 0.00 | 0.00 | 0.00 | 72 | 1012.8 |
| 20260509231154 | 17 | 319 | 20.9 | 37.0 | 0.00 | 0.00 | 0.00 | 72 | 1012.8 |
| 20260509230650 | 17 | 322 | 22.5 | 35.4 | 0.00 | 0.00 | 0.00 | 72 | 1013.0 |
| 20260509230150 | 17 | 330 | 24.1 | 33.8 | 0.00 | 0.00 | 0.00 | 71 | 1013.1 |
| 20260509225652 | 17 | 323 | 22.5 | 38.6 | 0.00 | 0.00 | 0.00 | 71 | 1013.1 |
| 20260509225150 | 17 | 312 | 22.5 | 38.6 | 0.00 | 0.00 | 0.00 | 70 | 1013.1 |
| 20260509224651 | 18 | 334 | 19.3 | 38.6 | 0.00 | 0.00 | 0.00 | 70 | 1013.2 |
| 20260509224153 | 18 | 317 | 20.9 | 32.2 | 0.00 | 0.00 | 0.00 | 68 | 1013.1 |
| 20260509223651 | 18 | 330 | 20.9 | 32.2 | 0.00 | 0.00 | 0.00 | 68 | 1013.2 |
| 20260509223150 | 18 | 312 | 19.3 | 30.6 | 0.00 | 0.00 | 0.00 | 68 | 1013.0 |
| 20260509222650 | 18 | 334 | 16.1 | 30.6 | 0.00 | 0.00 | 0.00 | 67 | 1012.9 |
| 20260509222150 | 18 | 324 | 17.7 | 30.6 | 0.00 | 0.00 | 0.00 | 66 | 1013.0 |
| 20260509221651 | 18 | 351 | 17.7 | 25.7 | 0.00 | 0.00 | 0.00 | 67 | 1012.8 |
| 20260509221151 | 18 | 309 | 14.5 | 25.7 | 0.00 | 0.00 | 0.00 | 68 | 1012.9 |
| 20260509220651 | 19 | 316 | 17.7 | 25.7 | 0.00 | 0.00 | 0.00 | 67 | 1013.1 |
| 20260509220151 | 19 | 310 | 17.7 | 22.5 | 0.00 | 0.00 | 0.00 | 67 | 1013.2 |
| 20260509215652 | 18 | 317 | 16.1 | 27.4 | 0.00 | 0.00 | 0.00 | 67 | 1013.3 |
| 20260509215150 | 18 | 326 | 16.1 | 27.4 | 0.00 | 0.00 | 0.00 | 67 | 1013.4 |
| 20260509214651 | 18 | 333 | 17.7 | 27.4 | 0.00 | 0.00 | 0.00 | 69 | 1013.6 |
| 20260509214151 | 18 | 298 | 14.5 | 30.6 | 0.00 | 0.00 | 0.00 | 69 | 1013.6 |
| 20260509213651 | 18 | 327 | 12.9 | 30.6 | 0.00 | 0.00 | 0.00 | 70 | 1013.8 |
| 20260509213151 | 18 | 317 | 17.7 | 30.6 | 0.00 | 0.00 | 0.00 | 70 | 1013.8 |
| 20260509212650 | 18 | 334 | 20.9 | 35.4 | 0.00 | 0.00 | 0.00 | 70 | 1014.0 |
| 20260509212151 | 18 | 324 | 19.3 | 35.4 | 0.00 | 0.00 | 0.00 | 71 | 1014.0 |
| 20260509211651 | 18 | 326 | 17.7 | 35.4 | 0.00 | 0.00 | 0.00 | 70 | 1014.0 |
| 20260509211153 | 18 | 327 | 20.9 | 32.2 | 0.00 | 0.00 | 0.00 | 69 | 1014.0 |
| 20260509210650 | 18 | 331 | 17.7 | 32.2 | 0.00 | 0.00 | 0.00 | 69 | 1014.0 |
| 20260509210150 | 18 | 303 | 20.9 | 30.6 | 0.00 | 0.00 | 0.00 | 69 | 1014.1 |
| 20260509205650 | 18 | 326 | 16.1 | 33.8 | 0.00 | 0.00 | 0.00 | 69 | 1014.1 |
| 20260509205150 | 18 | 336 | 22.5 | 33.8 | 0.00 | 0.00 | 0.00 | 69 | 1014.1 |
| 20260509204650 | 18 | 330 | 16.1 | 33.8 | 0.00 | 0.00 | 0.00 | 70 | 1014.2 |
| 20260509204151 | 18 | 317 | 17.7 | 41.8 | 0.00 | 0.00 | 0.00 | 71 | 1014.2 |
| 20260509203651 | 18 | 312 | 20.9 | 41.8 | 0.00 | 0.00 | 0.00 | 71 | 1014.3 |
| 20260509203150 | 18 | 310 | 20.9 | 41.8 | 0.00 | 0.00 | 0.00 | 70 | 1014.3 |
| 20260509202652 | 18 | 306 | 20.9 | 33.8 | 0.00 | 0.00 | 0.00 | 70 | 1014.4 |
| 20260509202150 | 18 | 303 | 22.5 | 38.6 | 0.00 | 0.00 | 0.00 | 70 | 1014.3 |
| 20260509201651 | 18 | 326 | 24.1 | 38.6 | 0.00 | 0.00 | 0.00 | 70 | 1014.4 |
| 20260509201150 | 18 | 1 | 19.3 | 38.6 | 0.00 | 0.00 | 0.00 | 71 | 1014.3 |
| 20260509200651 | 18 | 331 | 17.7 | 33.8 | 0.00 | 0.00 | 0.00 | 71 | 1014.4 |
| 20260509200151 | 18 | 324 | 24.1 | 33.8 | 0.00 | 0.00 | 0.00 | 71 | 1014.5 |
| 20260509195650 | 19 | 344 | 20.9 | 33.8 | 0.00 | 0.00 | 0.00 | 70 | 1014.5 |
| 20260509195151 | 19 | 323 | 19.3 | 30.6 | 0.00 | 0.00 | 0.00 | 69 | 1014.6 |
| 20260509194651 | 19 | 320 | 16.1 | 29.0 | 0.00 | 0.00 | 0.00 | 69 | 1014.6 |
| 20260509194150 | 19 | 308 | 16.1 | 27.4 | 0.00 | 0.00 | 0.00 | 70 | 1014.6 |
| 20260509193650 | 19 | 327 | 17.7 | 27.4 | 0.00 | 0.00 | 0.00 | 69 | 1014.7 |
| 20260509193150 | 19 | 326 | 12.9 | 24.1 | 0.00 | 0.00 | 0.00 | 70 | 1014.8 |
| 20260509192650 | 18 | 327 | 11.3 | 24.1 | 0.00 | 0.00 | 0.00 | 72 | 1014.8 |
| 20260509192150 | 18 | 330 | 11.3 | 24.1 | 0.00 | 0.00 | 0.00 | 71 | 1015.0 |
| 20260509191651 | 18 | 329 | 12.9 | 27.4 | 0.00 | 0.00 | 0.00 | 70 | 1015.1 |
| 20260509191153 | 18 | 333 | 12.9 | 27.4 | 0.00 | 0.00 | 0.00 | 71 | 1015.0 |
| 20260509190650 | 18 | 324 | 11.3 | 27.4 | 0.00 | 0.00 | 0.00 | 73 | 1015.1 |
| 20260509185650 | 18 | 333 | 14.5 | 29.0 | 0.00 | 0.00 | 0.00 | 72 | 1015.2 |
| 20260509185151 | 18 | 338 | 16.1 | 29.0 | 0.00 | 0.00 | 0.00 | 72 | 1015.3 |
| 20260509184649 | 18 | 322 | 16.1 | 29.0 | 0.00 | 0.00 | 0.00 | 72 | 1015.4 |
| 20260509184151 | 17 | 323 | 14.5 | 25.7 | 0.00 | 0.00 | 0.00 | 72 | 1015.4 |
| 20260509183649 | 17 | 323 | 17.7 | 22.5 | 0.00 | 0.00 | 0.00 | 73 | 1015.4 |
| 20260509183150 | 17 | 333 | 14.5 | 29.0 | 0.00 | 0.00 | 0.00 | 74 | 1015.4 |
| 20260509182650 | 17 | 324 | 17.7 | 29.0 | 0.00 | 0.00 | 0.00 | 74 | 1015.5 |
| 20260509182150 | 17 | 317 | 17.7 | 29.0 | 0.00 | 0.00 | 0.00 | 75 | 1015.5 |
| 20260509181650 | 17 | 320 | 17.7 | 29.0 | 0.00 | 0.00 | 0.00 | 74 | 1015.5 |
| 20260509180649 | 17 | 331 | 19.3 | 29.0 | 0.00 | 0.00 | 0.00 | 75 | 1015.6 |
| 20260509180149 | 17 | 334 | 17.7 | 25.7 | 0.00 | 0.00 | 0.00 | 75 | 1015.5 |
| 20260509175650 | 17 | 310 | 17.7 | 20.9 | 0.00 | 0.00 | 0.00 | 75 | 1015.5 |
| 20260509175149 | 17 | 305 | 12.9 | 20.9 | 0.00 | 0.00 | 0.00 | 76 | 1015.5 |
| 20260509174649 | 17 | 316 | 12.9 | 20.9 | 0.00 | 0.00 | 0.00 | 76 | 1015.4 |
| 20260509174150 | 17 | 296 | 9.7 | 17.7 | 0.00 | 0.00 | 0.00 | 77 | 1015.4 |
| 20260509173650 | 17 | 322 | 9.7 | 17.7 | 0.00 | 0.00 | 0.00 | 76 | 1015.6 |
| 20260509173151 | 17 | 334 | 12.9 | 16.1 | 0.00 | 0.00 | 0.00 | 76 | 1015.6 |
| 20260509172652 | 17 | 298 | 8.0 | 16.1 | 0.00 | 0.00 | 0.00 | 77 | 1015.8 |
| 20260509172149 | 17 | 277 | 9.7 | 14.5 | 0.00 | 0.00 | 0.00 | 76 | 1015.8 |
| 20260509171650 | 17 | 282 | 8.0 | 11.3 | 0.00 | 0.00 | 0.00 | 78 | 1015.6 |
| 20260509171152 | 17 | 292 | 4.8 | 11.3 | 0.00 | 0.00 | 0.00 | 78 | 1015.5 |
| 20260509170649 | 16 | 291 | 3.2 | 11.3 | 0.00 | 0.00 | 0.00 | 78 | 1015.6 |
| 20260509170149 | 16 | 292 | 4.8 | 9.7 | 0.00 | 0.00 | 0.00 | 79 | 1015.6 |
| 20260509165650 | 16 | 285 | 6.4 | 9.7 | 0.00 | 0.00 | 0.00 | 80 | 1015.6 |
| 20260509165149 | 16 | 289 | 4.8 | 9.7 | 0.00 | 0.00 | 0.00 | 80 | 1015.7 |
| 20260509164649 | 15 | 292 | 4.8 | 9.7 | 0.00 | 0.00 | 0.00 | 80 | 1015.7 |
| 20260509164153 | 15 | 299 | 6.4 | 9.7 | 0.00 | 0.00 | 0.00 | 81 | 1015.7 |
| 20260509163649 | 15 | 299 | 6.4 | 9.7 | 0.00 | 0.00 | 0.00 | 80 | 1015.8 |
| 20260509163149 | 15 | 305 | 8.0 | 9.7 | 0.00 | 0.00 | 0.00 | 81 | 1015.8 |
| 20260509162650 | 15 | 305 | 1.6 | 9.7 | 0.00 | 0.00 | 0.00 | 81 | 1015.7 |
| 20260509162150 | 15 | 305 | 6.4 | 8.0 | 0.00 | 0.00 | 0.00 | 82 | 1015.7 |
| 20260509161650 | 14 | 313 | 3.2 | 6.4 | 0.00 | 0.00 | 0.00 | 83 | 1015.7 |
| 20260509161150 | 14 | 296 | 4.8 | 4.8 | 0.00 | 0.00 | 0.00 | 84 | 1015.7 |
| 20260509160149 | 13 | 289 | 0.0 | 4.8 | 0.00 | 0.00 | 0.00 | 85 | 1015.7 |
| 20260509155650 | 13 | 277 | 1.6 | 1.6 | 0.00 | 0.00 | 0.00 | 85 | 1015.6 |
| 20260509155149 | 13 | 0 | 0.0 | 0.0 | 0.00 | 0.00 | 0.00 | 86 | 1015.6 |
| 20260509153649 | 12 | 296 | 0.0 | 1.6 | 0.00 | 0.00 | 0.00 | 86 | 1015.8 |
| 20260509153149 | 12 | 0 | 0.0 | 0.0 | 0.00 | 0.00 | 0.00 | 87 | 1015.8 |
| 20260509152650 | 12 | 0 | 0.0 | 3.2 | 0.00 | 0.00 | 0.00 | 87 | 1015.9 |
| 20260509152153 | 12 | 296 | 0.0 | 3.2 | 0.00 | 0.00 | 0.00 | 87 | 1016.0 |
| 20260509151650 | 12 | 306 | 0.0 | 3.2 | 0.00 | 0.00 | 0.00 | 87 | 1015.9 |
| 20260509150650 | 11 | 0 | 0.0 | 0.0 | 0.00 | 0.00 | 0.00 | 87 | 1015.9 |
| 20260509150150 | 11 | 0 | 0.0 | 0.0 | 0.00 | 0.00 | 0.00 | 87 | 1015.9 |
| 20260509145150 | 11 | 0 | 0.0 | 4.8 | 0.00 | 0.00 | 0.00 | 87 | 1016.0 |
| 20260509144650 | 11 | 67 | 0.0 | 4.8 | 0.00 | 0.00 | 0.00 | 87 | 1016.1 |
| 20260509144153 | 11 | 0 | 0.0 | 3.2 | 0.00 | 0.00 | 0.00 | 87 | 1016.0 |
| 20260509143650 | 10 | 334 | 0.0 | 3.2 | 0.00 | 0.00 | 0.00 | 87 | 1016.2 |
| 20260509143150 | 10 | 319 | 0.0 | 3.2 | 0.00 | 0.00 | 0.00 | 87 | 1016.5 |
| 20260509142651 | 10 | 113 | 0.0 | 6.4 | 0.00 | 0.00 | 0.00 | 86 | 1016.5 |
| 20260509142150 | 10 | 105 | 0.0 | 6.4 | 0.00 | 0.00 | 0.00 | 86 | 1016.3 |
| 20260509141650 | 10 | 105 | 1.6 | 6.4 | 0.00 | 0.00 | 0.00 | 87 | 1016.1 |
| 20260509141152 | 10 | 121 | 3.2 | 4.8 | 0.00 | 0.00 | 0.00 | 87 | 1016.2 |
| 20260509140651 | 10 | 0 | 0.0 | 0.0 | 0.00 | 0.00 | 0.00 | 86 | 1016.2 |
| 20260509140150 | 10 | 4 | 0.0 | 3.2 | 0.00 | 0.00 | 0.00 | 86 | 1016.3 |
| 20260509135651 | 10 | 127 | 0.0 | 3.2 | 0.00 | 0.00 | 0.00 | 86 | 1016.3 |
| 20260509135150 | 9 | 106 | 0.0 | 3.2 | 0.00 | 0.00 | 0.00 | 86 | 1016.3 |
| 20260509134650 | 9 | 81 | 0.0 | 4.8 | 0.00 | 0.00 | 0.00 | 86 | 1016.1 |
| 20260509134152 | 9 | 110 | 1.6 | 4.8 | 0.00 | 0.00 | 0.00 | 86 | 1016.0 |
| 20260509133650 | 9 | 105 | 1.6 | 4.8 | 0.00 | 0.00 | 0.00 | 86 | 1016.0 |
| 20260509133150 | 9 | 99 | 3.2 | 4.8 | 0.00 | 0.00 | 0.00 | 86 | 1016.1 |
| 20260509132651 | 9 | 105 | 3.2 | 4.8 | 0.00 | 0.00 | 0.00 | 86 | 1016.2 |
| 20260509132150 | 9 | 93 | 3.2 | 3.2 | 0.00 | 0.00 | 0.00 | 86 | 1016.2 |
| 20260509131650 | 9 | 92 | 1.6 | 8.0 | 0.00 | 0.00 | 0.00 | 86 | 1016.2 |
| 20260509131153 | 9 | 112 | 3.2 | 8.0 | 0.00 | 0.00 | 0.00 | 86 | 1016.2 |
| 20260509130650 | 9 | 100 | 3.2 | 8.0 | 0.00 | 0.00 | 0.00 | 86 | 1016.1 |
| 20260509130150 | 9 | 112 | 6.4 | 6.4 | 0.00 | 0.00 | 0.00 | 86 | 1016.2 |
| 20260509125651 | 9 | 105 | 4.8 | 6.4 | 0.00 | 0.00 | 0.00 | 86 | 1016.2 |
| 20260509125150 | 8 | 96 | 3.2 | 3.2 | 0.00 | 0.00 | 0.00 | 86 | 1016.3 |
| 20260509124650 | 9 | 86 | 1.6 | 6.4 | 0.00 | 0.00 | 0.00 | 86 | 1016.4 |
| 20260509124152 | 9 | 86 | 1.6 | 6.4 | 0.00 | 0.00 | 0.00 | 85 | 1016.4 |
| 20260509123650 | 8 | 99 | 1.6 | 6.4 | 0.00 | 0.00 | 0.00 | 85 | 1016.4 |
| 20260509123150 | 9 | 105 | 3.2 | 8.0 | 0.00 | 0.00 | 0.00 | 85 | 1016.4 |
| 20260509122651 | 8 | 105 | 4.8 | 8.0 | 0.00 | 0.00 | 0.00 | 86 | 1016.4 |
| 20260509122150 | 9 | 107 | 4.8 | 8.0 | 0.00 | 0.00 | 0.00 | 85 | 1016.5 |
| 20260509121651 | 8 | 109 | 3.2 | 8.0 | 0.00 | 0.00 | 0.00 | 85 | 1016.6 |
| 20260509121152 | 8 | 106 | 4.8 | 8.0 | 0.00 | 0.00 | 0.00 | 85 | 1016.6 |
| 20260509120650 | 9 | 99 | 4.8 | 8.0 | 0.00 | 0.00 | 0.00 | 85 | 1016.7 |
| 20260509120150 | 9 | 103 | 6.4 | 8.0 | 0.00 | 0.00 | 0.00 | 85 | 1016.7 |
| 20260509115651 | 9 | 114 | 6.4 | 8.0 | 0.00 | 0.00 | 0.00 | 85 | 1016.7 |
| 20260509115150 | 9 | 110 | 6.4 | 6.4 | 0.00 | 0.00 | 0.00 | 85 | 1016.7 |
| 20260509114651 | 9 | 99 | 6.4 | 6.4 | 0.00 | 0.00 | 0.00 | 85 | 1016.8 |
| 20260509113650 | 9 | 103 | 1.6 | 6.4 | 0.00 | 0.00 | 0.00 | 85 | 1017.1 |
| 20260509113150 | 9 | 100 | 3.2 | 6.4 | 0.00 | 0.00 | 0.00 | 85 | 1017.1 |
| 20260509112651 | 10 | 109 | 4.8 | 6.4 | 0.00 | 0.00 | 0.00 | 85 | 1017.1 |
| 20260509112150 | 9 | 102 | 3.2 | 4.8 | 0.00 | 0.00 | 0.00 | 85 | 1017.0 |
| 20260509111650 | 10 | 91 | 3.2 | 4.8 | 0.00 | 0.00 | 0.00 | 85 | 1016.9 |
| 20260509111152 | 10 | 100 | 3.2 | 4.8 | 0.00 | 0.00 | 0.00 | 85 | 1016.9 |
| 20260509110651 | 10 | 60 | 3.2 | 8.0 | 0.00 | 0.00 | 0.00 | 85 | 1016.9 |
| 20260509110150 | 9 | 91 | 3.2 | 8.0 | 0.00 | 0.00 | 0.00 | 85 | 1016.9 |
| 20260509105150 | 9 | 113 | 3.2 | 8.0 | 0.00 | 0.00 | 0.00 | 85 | 1017.0 |
| 20260509104650 | 9 | 102 | 4.8 | 8.0 | 0.00 | 0.00 | 0.00 | 85 | 1016.9 |
| 20260509104152 | 9 | 98 | 6.4 | 8.0 | 0.00 | 0.00 | 0.00 | 85 | 1016.9 |
| 20260509103650 | 9 | 102 | 4.8 | 6.4 | 0.00 | 0.00 | 0.00 | 84 | 1016.9 |
| 20260509103150 | 9 | 105 | 1.6 | 6.4 | 0.00 | 0.00 | 0.00 | 84 | 1017.1 |